Aérodrome :
LOGIN :

S'inscrire | Disclaimer

   EN    FR    IT 

 










Légende :    VFR   VFR Marginal   IFR   IFR Intensif   IFR Très Intensif
Visi : 
Plafond : 
>= 8 km
>= 3000ft
5 à 8 km
1000 à 3000 ft
1500m à 5 km
500 à 1000 ft
800 à 1500m
200 à 500 ft
< 800m
< 200 ft
Symboles :   Orages  Brouillard  Fortes neiges  Fortes précipitations  Vent > 20 kt
SIGMETs :   Divers  Orages  Givrage  Turbulence  Onde Orograph.  Cendres Volcan.







- Altitude de l'aérodrome : 436 ft
- Code IATA : ANG
- Voir les cartes d'approche


LFBU - Angoulême Brie Champniers

DERNIER METAR :
  • 240500Z AUTO 02003KT 6000 NSC 05/04 Q1026

METARs EXPIRÉS :
  • 240430Z AUTO VRB01KT 6000 NSC 05/03 Q1026
  • 240400Z AUTO VRB02KT 7000 NSC 06/04 Q1025
  • 240330Z AUTO 03005KT 7000 NSC 06/04 Q1025
  • 240300Z AUTO 02007KT 8000 NSC 07/04 Q1025
  • 240230Z AUTO 04006KT 8000 NSC 07/04 Q1025

TAF TAF LFBU
Valide du 23 à 18h jusqu'au 24 à 18h UTC


231700Z 2318/2418 05007KT CAVOK
PROB40 2403/2408 3000 BR
PROB40 2412/2418 35010KT
Pas de NOTAMs connus pour ce terrain.



MET'MAP, la Météo Aéronautique d'un coup d'oeil ! - Copyright ORBIFLY Décembre 2007 - Disclaimer

ORBIFLY MET'MAP TEAM :

Programmation & Développement : Alexandra Zaïnal
Conception & Développement : Baudouin d'Aumeries
Co-Programmation & Développement : Marc-Olivier Méhu
Soutien technique & logistique : Manuel Goepfert

Contact : metmap@orbifly.com




SOURCES & CREDITS :

   NOAA